EW3502 Weather Reports


time (UTC)temp
C
wind
direction
speed
KPH
gust
KPH
rain 1hr
cm
rain 24hr
cm
rain mn
cm
humidity
%
barometer
mb
20260510190522 8 304 12.9 25.7 0.00 0.00 0.00 73 1018.4
20260510190022 7 283 8.0 24.1 0.00 0.00 0.00 73 1018.4
20260510185524 8 246 6.4 24.1 0.00 0.00 0.00 74 1018.4
20260510185020 7 331 6.4 24.1 0.00 0.00 0.00 74 1018.4
20260510184518 7 317 11.3 24.1 0.00 0.00 0.00 73 1018.4
20260510184017 7 266 12.9 29.0 0.00 0.00 0.00 72 1018.3
20260510183518 7 294 6.4 24.1 0.00 0.00 0.00 74 1018.3
20260510183017 7 303 11.3 24.1 0.00 0.00 0.00 74 1018.3
20260510182520 7 277 11.3 25.7 0.00 0.00 0.00 73 1018.1
20260510182015 7 265 12.9 25.7 0.00 0.00 0.00 76 1018.1
20260510181534 7 288 12.9 20.9 0.00 0.00 0.00 76 1018.1
20260510181013 7 242 9.7 29.0 0.00 0.00 0.00 78 1018.0
20260510180516 7 255 12.9 29.0 0.00 0.00 0.00 79 1018.0
20260510180010 7 278 11.3 22.5 0.00 0.00 0.00 79 1017.9
20260510175612 7 309 11.3 24.1 0.00 0.00 0.00 79 1018.0
20260510175008 7 302 8.0 24.1 0.00 0.00 0.00 80 1017.9
20260510174508 7 277 11.3 24.1 0.00 0.13 0.00 78 1018.0
20260510174056 7 271 6.4 22.5 0.00 0.13 0.00 80 1017.9
20260510173557 7 259 9.7 22.5 0.00 0.13 0.00 79 1017.9
20260510173055 7 259 9.7 22.5 0.00 0.13 0.00 78 1017.9
20260510172552 7 302 4.8 22.5 0.00 0.13 0.00 80 1017.8
20260510172052 7 302 3.2 25.7 0.00 0.13 0.00 81 1017.8
20260510171552 7 248 9.7 22.5 0.00 0.13 0.00 80 1017.7
20260510171053 7 238 8.0 19.3 0.00 0.13 0.00 80 1017.7
20260510170550 7 286 8.0 19.3 0.00 0.13 0.00 80 1017.6
20260510170049 7 269 4.8 24.1 0.00 0.13 0.00 80 1017.6
20260510165549 7 261 9.7 24.1 0.00 0.13 0.00 79 1017.6
20260510165050 7 313 6.4 19.3 0.00 0.13 0.00 81 1017.6
20260510164546 7 227 3.2 22.5 0.00 0.15 0.00 82 1017.4
20260510164045 7 266 9.7 22.5 0.00 0.15 0.00 81 1017.5
20260510163544 7 289 8.0 22.5 0.00 0.15 0.00 82 1017.5
20260510163048 7 275 9.7 22.5 0.00 0.15 0.00 82 1017.5
20260510162545 6 313 6.4 22.5 0.00 0.15 0.00 82 1017.4
20260510162043 6 248 9.7 25.7 0.00 0.15 0.00 83 1017.3
20260510161542 6 278 11.3 22.5 0.00 0.15 0.00 82 1017.4
20260510161042 6 281 9.7 22.5 0.00 0.15 0.00 83 1017.4
20260510160543 6 284 12.9 22.5 0.00 0.15 0.00 82 1017.4
20260510160042 6 272 4.8 22.5 0.00 0.15 0.00 83 1017.3
20260510155542 6 271 9.7 22.5 0.00 0.15 0.00 82 1017.2
20260510155040 6 267 12.9 22.5 0.00 0.15 0.00 81 1017.2
20260510154540 6 241 12.9 22.5 0.00 0.15 0.00 81 1017.2
20260510154024 6 271 9.7 20.9 0.00 0.15 0.00 80 1017.2
20260510153525 7 258 12.9 22.5 0.00 0.15 0.00 80 1017.1
20260510153020 7 313 11.3 22.5 0.00 0.15 0.00 80 1016.9
20260510152519 6 330 3.2 16.1 0.00 0.15 0.00 80 1016.8
20260510152022 6 19 8.0 17.7 0.00 0.15 0.00 80 1016.7
20260510151518 6 294 8.0 19.3 0.00 0.15 0.00 80 1016.8
20260510151008 6 12 6.4 19.3 0.00 0.15 0.00 80 1016.7
20260510150508 6 319 8.0 19.3 0.00 0.15 0.00 81 1016.6
20260510150006 6 9 9.7 17.7 0.00 0.15 0.00 81 1016.5
20260510145504 6 263 6.4 16.1 0.00 0.15 0.00 82 1016.4
20260510145004 6 342 8.0 17.7 0.00 0.15 0.00 82 1016.4
20260510144505 6 296 8.0 17.7 0.00 0.15 0.00 82 1016.3
20260510144003 6 319 4.8 16.1 0.00 0.15 0.00 84 1016.3
20260510143503 6 265 4.8 16.1 0.00 0.15 0.00 83 1016.1
20260510143001 6 310 3.2 17.7 0.00 0.15 0.00 84 1016.0
20260510142502 6 344 6.4 17.7 0.00 0.15 0.00 84 1016.0
20260510142101 6 331 9.7 19.3 0.00 0.15 0.00 83 1015.8
20260510141600 6 304 4.8 19.3 0.00 0.15 0.00 85 1015.9
20260510141100 5 281 8.0 19.3 0.00 0.15 0.00 85 1015.8
20260510140558 5 342 9.7 19.3 0.00 0.15 0.00 84 1015.8
20260510140058 5 346 8.0 20.9 0.00 0.15 0.00 84 1015.7
20260510135558 5 270 9.7 20.9 0.00 0.15 0.00 85 1015.7
20260510135100 5 303 6.4 16.1 0.00 0.15 0.00 85 1015.6
20260510134605 5 343 6.4 17.7 0.00 0.15 0.00 85 1015.5
20260510134055 5 240 8.0 17.7 0.00 0.15 0.00 85 1015.5
20260510133556 5 326 9.7 19.3 0.00 0.15 0.00 85 1015.5
20260510133055 5 306 9.7 19.3 0.00 0.15 0.00 85 1015.4
20260510132556 5 274 4.8 22.5 0.00 0.15 0.00 86 1015.3
20260510132054 5 9 9.7 20.9 0.00 0.15 0.00 86 1015.2
20260510131553 5 298 8.0 17.7 0.00 0.15 0.00 86 1015.2
20260510131035 5 337 6.4 17.7 0.00 0.15 0.00 86 1015.0
20260510130534 5 339 6.4 14.5 0.00 0.15 0.00 87 1015.0
20260510130034 5 346 3.2 19.3 0.00 0.15 0.00 87 1015.0
20260510125536 5 14 6.4 19.3 0.00 0.15 0.00 87 1014.9
20260510125032 5 281 11.3 20.9 0.00 0.15 0.00 87 1014.8
20260510124533 5 296 6.4 20.9 0.00 0.15 0.00 88 1014.8
20260510124019 5 16 8.0 19.3 0.00 0.15 0.00 88 1014.7
20260510123519 5 10 9.7 19.3 0.00 0.15 0.00 88 1014.7
20260510123019 5 311 8.0 16.1 0.00 0.15 0.00 88 1014.6
20260510122518 5 309 6.4 16.1 0.00 0.15 0.00 89 1014.5
20260510122017 5 318 8.0 16.1 0.00 0.15 0.00 90 1014.3
20260510121516 5 336 6.4 14.5 0.00 0.15 0.00 91 1014.2
20260510121015 5 321 3.2 19.3 0.00 0.15 0.00 91 1014.2
20260510120516 4 351 4.8 19.3 0.00 0.15 0.00 92 1014.2
20260510120015 4 360 4.8 20.9 0.00 0.15 0.00 92 1014.1
20260510115515 4 30 9.7 20.9 0.00 0.15 0.00 92 1014.0
20260510115014 4 344 9.7 22.5 0.00 0.15 0.00 91 1013.9
20260510114517 4 360 9.7 25.7 0.00 0.15 0.00 91 1013.8
20260510114011 4 315 9.7 20.9 0.00 0.15 0.00 91 1013.6
20260510113511 4 13 8.0 22.5 0.00 0.15 0.00 92 1013.7
20260510113010 4 360 9.7 22.5 0.00 0.15 0.00 92 1013.7
20260510112510 4 348 8.0 20.9 0.00 0.15 0.00 92 1013.6
20260510112009 4 360 8.0 20.9 0.00 0.15 0.00 92 1013.4
20260510111514 4 301 8.0 20.9 0.00 0.15 0.00 92 1013.3
20260510111006 4 335 8.0 25.7 0.00 0.15 0.00 92 1013.2
20260510110507 4 308 6.4 24.1 0.00 0.15 0.00 92 1013.0
20260510110009 4 277 9.7 24.1 0.00 0.15 0.00 92 1012.9
20260510105503 4 290 8.0 29.0 0.00 0.15 0.00 92 1012.8
20260510105002 4 245 9.7 29.0 0.00 0.15 0.00 92 1012.6
20260510104502 4 324 6.4 19.3 0.00 0.15 0.00 92 1012.5
20260510104004 4 313 6.4 20.9 0.00 0.15 0.00 92 1012.4
20260510103550 4 283 8.0 24.1 0.00 0.15 0.00 91 1012.4
20260510103051 4 329 8.0 24.1 0.00 0.15 0.00 91 1012.3
20260510102549 4 265 6.4 16.1 0.00 0.15 0.00 91 1012.3
20260510102049 4 355 8.0 17.7 0.00 0.15 0.00 91 1012.1
20260510101550 4 321 8.0 17.7 0.00 0.15 0.00 91 1012.0
20260510101047 4 321 6.4 16.1 0.00 0.15 0.00 91 1012.0
20260510100549 4 360 9.7 22.5 0.00 0.15 0.00 91 1011.9
20260510100109 4 290 8.0 22.5 0.00 0.15 0.00 91 1011.8
20260510095543 4 337 6.4 19.3 0.00 0.15 0.00 91 1011.7
20260510095042 4 22 9.7 20.9 0.00 0.15 0.00 91 1011.6
20260510094543 4 355 8.0 22.5 0.00 0.15 0.00 91 1011.5
20260510094041 3 348 6.4 22.5 0.00 0.15 0.00 91 1011.5
20260510093539 3 331 11.3 22.5 0.00 0.15 0.00 91 1011.4
20260510093047 3 348 11.3 24.1 0.00 0.15 0.00 91 1011.3
20260510092538 3 321 9.7 24.1 0.00 0.15 0.00 91 1011.2
20260510092038 3 17 8.0 20.9 0.00 0.15 0.00 91 1011.2
20260510091538 3 14 9.7 20.9 0.00 0.15 0.00 90 1011.0
20260510091035 3 327 9.7 20.9 0.00 0.15 0.00 91 1011.0
20260510090534 3 300 8.0 19.3 0.00 0.15 0.00 91 1011.0
20260510090037 3 297 8.0 30.6 0.00 0.15 0.00 90 1010.9
20260510085531 3 9 8.0 30.6 0.00 0.15 0.00 90 1010.9
20260510085032 3 296 9.7 22.5 0.00 0.15 0.00 90 1010.8
20260510084533 3 337 9.7 20.9 0.00 0.15 0.00 90 1010.7
20260510084030 4 290 6.4 20.9 0.00 0.15 0.00 90 1010.6
20260510083518 4 273 8.0 29.0 0.00 0.15 0.00 90 1010.6
20260510083018 4 296 8.0 29.0 0.00 0.15 0.00 90 1010.5
20260510082518 4 323 4.8 20.9 0.00 0.15 0.00 90 1010.6
20260510082016 4 331 6.4 20.9 0.00 0.15 0.00 90 1010.5
20260510081523 4 248 8.0 20.9 0.00 0.15 0.00 90 1010.4
20260510081015 4 259 6.4 20.9 0.00 0.15 0.00 90 1010.3
20260510080514 4 307 9.7 20.9 0.00 0.15 0.00 90 1010.2
20260510080018 4 277 8.0 20.9 0.00 0.15 0.00 90 1010.2
20260510075511 4 313 6.4 17.7 0.00 0.15 0.00 90 1010.0
20260510075011 4 315 8.0 20.9 0.00 0.15 0.00 90 1009.9
20260510074510 4 341 8.0 20.9 0.00 0.15 0.00 89 1009.7
20260510074010 4 278 6.4 19.3 0.00 0.15 0.00 90 1009.5
20260510073508 4 9 12.9 19.3 0.00 0.15 0.00 90 1009.4
20260510073007 4 360 8.0 19.3 0.00 0.15 0.00 90 1009.4
20260510072507 4 265 8.0 17.7 0.00 0.15 0.00 90 1009.3
20260510072011 4 333 4.8 17.7 0.00 0.15 0.00 90 1009.3
20260510071506 4 285 8.0 19.3 0.00 0.15 0.00 90 1009.2
20260510071005 4 333 8.0 22.5 0.00 0.15 0.00 89 1009.3
20260510070505 4 344 6.4 24.1 0.00 0.15 0.00 89 1009.3
20260510070005 4 271 11.3 24.1 0.00 0.15 0.00 89 1009.2
20260510065504 5 252 8.0 24.1 0.00 0.15 0.00 89 1009.3
20260510065004 5 336 4.8 20.9 0.00 0.15 0.00 89 1009.2
20260510064506 5 300 9.7 20.9 0.00 0.15 0.00 89 1009.2
20260510064003 5 273 6.4 20.9 0.00 0.15 0.00 89 1009.1
20260510063550 5 309 9.7 20.9 0.00 0.15 0.00 89 1009.0
20260510063049 5 282 8.0 24.1 0.00 0.15 0.00 89 1008.9
20260510062549 5 360 8.0 22.5 0.00 0.15 0.00 89 1008.9
20260510062046 5 269 9.7 22.5 0.00 0.15 0.00 89 1008.7
20260510061550 5 305 8.0 24.1 0.00 0.15 0.00 89 1008.7
20260510061045 5 269 8.0 24.1 0.00 0.15 0.00 89 1008.7
20260510060544 5 323 9.7 24.1 0.00 0.15 0.00 88 1008.7
20260510060044 5 247 6.4 22.5 0.00 0.15 0.00 88 1008.7
20260510055542 5 235 8.0 22.5 0.00 0.15 0.00 88 1008.6
20260510055042 5 315 11.3 20.9 0.00 0.15 0.00 88 1008.5
20260510054547 5 311 11.3 24.1 0.00 0.15 0.00 88 1008.5
20260510054040 5 277 11.3 30.6 0.00 0.15 0.00 88 1008.4
20260510053539 5 301 12.9 30.6 0.00 0.15 0.00 87 1008.2
20260510053039 5 350 9.7 25.7 0.00 0.15 0.00 87 1008.1
20260510052538 5 360 11.3 25.7 0.00 0.15 0.00 87 1008.0
20260510052038 5 288 11.3 29.0 0.00 0.15 0.00 88 1008.0
20260510051539 5 282 11.3 33.8 0.00 0.15 0.00 87 1008.0
20260510051036 5 9 9.7 33.8 0.00 0.15 0.00 87 1007.9
20260510050537 5 318 12.9 32.2 0.00 0.15 0.00 86 1007.8
20260510050036 5 249 9.7 32.2 0.00 0.15 0.00 86 1007.7
20260510045533 5 234 14.5 30.6 0.00 0.15 0.00 86 1007.6
20260510045033 5 234 12.9 29.0 0.00 0.15 0.00 86 1007.6
20260510044531 5 323 12.9 25.7 0.00 0.15 0.00 86 1007.5
20260510044033 5 296 9.7 29.0 0.00 0.15 0.00 87 1007.5
20260510043530 5 231 12.9 29.0 0.00 0.15 0.00 87 1007.4
20260510043019 5 226 14.5 33.8 0.00 0.15 0.00 87 1007.2
20260510042510 5 265 17.7 33.8 0.00 0.15 0.00 86 1007.2
20260510042009 5 329 11.3 30.6 0.00 0.15 0.00 87 1007.0
20260510041507 5 260 12.9 25.7 0.00 0.15 0.00 86 1007.0
20260510041007 5 321 9.7 30.6 0.00 0.15 0.00 86 1006.8
20260510040507 5 205 14.5 30.6 0.00 0.15 0.00 86 1006.8
20260510040047 5 315 11.3 30.6 0.00 0.15 0.00 85 1006.7
20260510035546 5 290 12.9 35.4 0.00 0.15 0.00 86 1006.6
20260510035046 5 222 12.9 32.2 0.00 0.15 0.00 85 1006.5
20260510034545 5 40 9.7 37.0 0.00 0.15 0.00 85 1006.5
20260510034044 5 259 14.5 37.0 0.00 0.15 0.00 85 1006.3
20260510033544 5 277 12.9 33.8 0.00 0.15 0.00 85 1006.3
20260510033034 5 342 11.3 30.6 0.00 0.15 0.00 85 1006.3
20260510032530 5 283 12.9 30.6 0.00 0.15 0.00 85 1006.2
20260510032030 5 324 9.7 29.0 0.00 0.15 0.00 85 1006.2
20260510031541 5 244 9.7 30.6 0.00 0.15 0.00 85 1006.1
20260510031028 5 19 9.7 30.6 0.00 0.15 0.00 84 1006.1
20260510030526 5 302 8.0 24.1 0.00 0.15 0.00 84 1006.0
20260510030025 5 275 8.0 24.1 0.00 0.15 0.00 84 1005.9
20260510025524 5 302 6.4 30.6 0.00 0.15 0.00 83 1006.0
20260510025024 6 276 8.0 20.9 0.00 0.15 0.00 83 1005.9
20260510024534 6 317 9.7 20.9 0.00 0.15 0.00 83 1005.9
20260510024021 6 250 12.9 24.1 0.00 0.15 0.00 82 1005.8
20260510023520 6 266 6.4 29.0 0.00 0.15 0.00 82 1005.8
20260510023019 6 286 9.7 29.0 0.00 0.15 0.00 81 1005.8
20260510022522 6 271 9.7 19.3 0.00 0.15 0.00 80 1005.7
20260510022017 6 275 11.3 25.7 0.00 0.15 0.00 78 1005.7
20260510021517 6 337 11.3 30.6 0.00 0.15 0.00 78 1005.7
20260510021015 6 329 12.9 30.6 0.00 0.15 0.00 78 1005.6
20260510020514 6 242 11.3 29.0 0.00 0.15 0.00 80 1005.5
20260510020014 6 304 8.0 29.0 0.00 0.15 0.00 81 1005.4
20260510015512 6 296 11.3 29.0 0.00 0.15 0.00 81 1005.2
20260510015010 6 322 9.7 24.1 0.00 0.15 0.00 80 1005.1
20260510014510 6 254 9.7 24.1 0.00 0.15 0.00 80 1005.0
20260510014010 6 298 11.3 24.1 0.00 0.15 0.00 81 1005.0
20260510013507 6 312 9.7 22.5 0.00 0.15 0.00 82 1004.9
20260510013056 6 309 11.3 24.1 0.00 0.15 0.00 82 1004.9
20260510012557 6 265 9.7 22.5 0.00 0.15 0.00 82 1004.8
20260510012054 6 248 9.7 20.9 0.00 0.15 0.00 83 1004.8
20260510011556 6 309 9.7 20.9 0.00 0.15 0.00 83 1004.7
20260510011052 7 295 8.0 22.5 0.00 0.15 0.00 84 1004.6
20260510010552 7 321 9.7 22.5 0.00 0.15 0.00 84 1004.5
20260510010050 7 292 8.0 20.9 0.00 0.15 0.00 83 1004.5
20260510005548 7 246 6.4 24.1 0.00 0.15 0.00 83 1004.4
20260510005047 7 317 9.7 24.1 0.00 0.15 0.00 83 1004.3
20260510004550 7 252 8.0 30.6 0.00 0.15 0.00 83 1004.3
20260510004046 7 286 8.0 20.9 0.00 0.15 0.00 83 1004.2
20260510003546 7 269 9.7 20.9 0.00 0.15 0.00 82 1004.0
20260510003102 7 292 8.0 20.9 0.00 0.15 0.00 82 1004.0
20260510002543 7 309 8.0 25.7 0.00 0.15 0.00 84 1003.8
20260510002042 7 267 11.3 25.7 0.00 0.15 0.00 84 1003.7
20260510001543 7 317 8.0 17.7 0.00 0.15 0.00 85 1003.6
20260510001041 7 316 9.7 24.1 0.00 0.15 0.00 87 1003.4
20260510000541 7 267 9.7 30.6 0.00 0.15 0.00 88 1003.3
20260510000044 7 309 8.0 30.6 0.00 0.15 0.00 89 1003.3
20260509235539 7 286 6.4 20.9 0.00 0.15 0.00 90 1003.1
20260509235139 7 263 9.7 20.9 0.00 0.15 0.00 90 1003.0
20260509234552 7 322 9.7 20.9 0.00 0.15 0.00 91 1002.9
20260509234036 7 309 8.0 20.9 0.00 0.15 0.00 91 1002.8
20260509233536 7 336 8.0 20.9 0.00 0.15 0.00 92 1002.7
20260509233024 7 292 11.3 19.3 0.00 0.15 0.00 91 1002.5
20260509232523 7 300 8.0 17.7 0.00 0.15 0.00 91 1002.6
20260509232025 7 267 8.0 22.5 0.00 0.15 0.00 91 1002.5
20260509231530 6 287 11.3 22.5 0.00 0.15 0.00 91 1002.5
20260509231024 6 296 9.7 17.7 0.00 0.15 0.00 91 1002.5
20260509230523 6 285 4.8 19.3 0.00 0.15 0.00 91 1002.6
20260509230028 6 273 8.0 19.3 0.00 0.15 0.00 90 1002.6
20260509225519 6 261 8.0 20.9 0.00 0.15 0.00 90 1002.5
20260509225018 6 223 8.0 20.9 0.00 0.15 0.00 90 1002.4
20260509224518 7 250 6.4 17.7 0.00 0.15 0.00 90 1002.4
20260509224017 7 244 8.0 17.7 0.00 0.15 0.00 91 1002.3
20260509223515 7 256 4.8 16.1 0.00 0.15 0.00 91 1002.2
20260509223014 7 259 6.4 16.1 0.00 0.15 0.00 92 1002.1
20260509222513 7 265 4.8 16.1 0.00 0.15 0.00 92 1001.9
20260509222011 7 237 3.2 14.5 0.00 0.15 0.00 91 1001.7
20260509221510 7 240 4.8 20.9 0.00 0.15 0.00 91 1001.7
20260509221010 7 230 3.2 20.9 0.00 0.15 0.00 91 1001.6
20260509220509 7 233 3.2 17.7 0.00 0.15 0.00 91 1001.5
20260509220009 7 229 6.4 17.7 0.00 0.15 0.00 91 1001.4
20260509215509 7 247 8.0 19.3 0.00 0.15 0.00 92 1001.4
20260509215008 8 261 6.4 19.3 0.00 0.15 0.00 92 1001.2
20260509214509 7 270 9.7 19.3 0.00 0.15 0.00 93 1001.3
20260509214007 7 263 6.4 19.3 0.00 0.15 0.00 93 1001.2
20260509213508 7 301 3.2 17.7 0.00 0.15 0.00 93 1001.2
20260509213006 7 250 6.4 22.5 0.00 0.15 0.00 92 1001.2
20260509212548 7 205 8.0 24.1 0.00 0.15 0.00 92 1001.2
20260509212046 7 340 9.7 24.1 0.00 0.15 0.00 92 1001.3
20260509211545 7 271 4.8 19.3 0.00 0.15 0.00 92 1000.9
20260509211044 7 207 4.8 19.3 0.00 0.15 0.00 91 1000.5
20260509210543 8 227 6.4 17.7 0.00 0.15 0.00 92 1000.5
20260509210048 8 283 1.6 19.3 0.00 0.15 0.00 92 1000.4
20260509205524 8 223 6.4 25.7 0.00 0.15 0.00 92 1000.4
20260509205023 8 209 8.0 25.7 0.00 0.15 0.00 91 1000.4
20260509204522 8 186 8.0 22.5 0.00 0.15 0.00 90 1000.5
20260509204021 8 218 4.8 22.5 0.00 0.15 0.00 89 1000.5
20260509203519 8 204 9.7 29.0 0.00 0.15 0.00 88 1000.4
20260509203022 9 214 9.7 29.0 0.00 0.15 0.00 87 1000.4
20260509202602 9 220 9.7 24.1 0.00 0.15 0.00 86 1000.3
20260509202058 10 232 9.7 24.1 0.00 0.15 0.00 86 1000.3
20260509201557 10 215 8.0 20.9 0.00 0.15 0.00 86 1000.3
20260509201055 10 267 6.4 29.0 0.00 0.15 0.00 87 1000.3
20260509200555 10 205 8.0 29.0 0.00 0.15 0.00 89 1000.2
20260509191534 10 236 3.2 19.3 0.03 0.18 0.03 89 1000.7
20260509191023 10 161 8.0 25.7 0.03 0.18 0.03 87 1000.9